4XTAB LLBS-LLMZ

Flight info

Callsign 4XTAB
Flight time 0h 32m
Altitude 4000
Route AMNON
Aircraft C172/L-SD/C

Departure

Time 2026-05-06 18:25
Airport Beersheba (Teyman) Airport (LLBS)

Arrival

Time 2026-05-06 18:57
Airport Bar Yehuda Airfield (LLMZ)
Time Latitude Longitude Altitude Speed Heading
2026-05-06 18:10 31.28528 34.72548 657 ft 0 kts 227°
2026-05-06 18:15 31.28525 34.72545 657 ft 0 kts 218°
2026-05-06 18:17 31.28524 34.72544 657 ft 0 kts 212°
2026-05-06 18:17 31.28523 34.72543 657 ft 2 kts 210°
2026-05-06 18:17 31.28511 34.72542 657 ft 0 kts 164°
2026-05-06 18:19 31.28509 34.72543 657 ft 1 kts 159°
2026-05-06 18:19 31.28497 34.72541 657 ft 0 kts 222°
2026-05-06 18:20 31.28487 34.72529 657 ft 5 kts 239°
2026-05-06 18:20 31.28512 34.72477 657 ft 10 kts 318°
2026-05-06 18:20 31.28575 34.72407 657 ft 14 kts 315°
2026-05-06 18:20 31.28657 34.72317 657 ft 18 kts 319°
2026-05-06 18:21 31.28759 34.72211 657 ft 21 kts 318°
2026-05-06 18:21 31.28872 34.72090 657 ft 23 kts 319°
2026-05-06 18:21 31.28998 34.71955 657 ft 25 kts 319°
2026-05-06 18:21 31.29048 34.71907 657 ft 0 kts 311°
2026-05-06 18:22 31.29027 34.71905 657 ft 6 kts 127°
2026-05-06 18:22 31.28953 34.71995 657 ft 20 kts 136°
2026-05-06 18:22 31.28833 34.72129 657 ft 27 kts 136°
2026-05-06 18:22 31.28678 34.72293 657 ft 32 kts 136°
2026-05-06 18:23 31.28517 34.72466 657 ft 28 kts 140°
2026-05-06 18:23 31.28451 34.72545 657 ft 3 kts 82°
2026-05-06 18:23 31.28466 34.72546 657 ft 0 kts 288°
2026-05-06 18:23 31.28480 34.72515 657 ft 0 kts 317°
2026-05-06 18:24 31.28615 34.72369 657 ft 55 kts 317°
2026-05-06 18:24 31.28988 34.71971 724 ft 81 kts 315°
2026-05-06 18:24 31.29386 34.71503 935 ft 82 kts 312°
2026-05-06 18:24 31.29849 34.71168 1156 ft 79 kts 353°
2026-05-06 18:25 31.30394 34.71161 1394 ft 76 kts 358°
2026-05-06 18:25 31.30935 34.71182 1578 ft 80 kts 11°
2026-05-06 18:25 31.31358 34.71605 1772 ft 80 kts 63°
2026-05-06 18:25 31.31417 34.72229 1962 ft 82 kts 96°
2026-05-06 18:26 31.31127 34.72780 2143 ft 84 kts 136°
2026-05-06 18:26 31.30715 34.73284 2340 ft 83 kts 114°
2026-05-06 18:26 31.30629 34.73933 2507 ft 81 kts 85°
2026-05-06 18:26 31.30681 34.74588 2562 ft 79 kts 80°
2026-05-06 18:27 31.30742 34.75220 2592 ft 81 kts 86°
2026-05-06 18:27 31.30726 34.75872 2653 ft 79 kts 93°
2026-05-06 18:27 31.30691 34.76528 2691 ft 80 kts 89°
2026-05-06 18:27 31.30686 34.77172 2732 ft 80 kts 88°
2026-05-06 18:28 31.30754 34.77819 2778 ft 80 kts 78°
2026-05-06 18:28 31.30782 34.78473 2808 ft 81 kts 92°
2026-05-06 18:28 31.30754 34.79126 2856 ft 80 kts 91°
2026-05-06 18:28 31.30661 34.79768 2883 ft 82 kts 112°
2026-05-06 18:29 31.30396 34.80359 2921 ft 82 kts 117°
2026-05-06 18:29 31.30120 34.80944 2959 ft 82 kts 118°
2026-05-06 18:29 31.29845 34.81520 3009 ft 81 kts 118°
2026-05-06 18:29 31.29548 34.82098 3012 ft 85 kts 119°
2026-05-06 18:30 31.29243 34.82687 3048 ft 84 kts 123°
2026-05-06 18:30 31.28875 34.83237 3085 ft 84 kts 129°
2026-05-06 18:30 31.28498 34.83746 3127 ft 83 kts 127°
2026-05-06 18:30 31.28140 34.84297 3149 ft 84 kts 127°
2026-05-06 18:31 31.27836 34.84851 3212 ft 80 kts 103°
2026-05-06 18:31 31.27916 34.85505 3228 ft 82 kts 57°
2026-05-06 18:31 31.28202 34.86069 3275 ft 81 kts 57°
2026-05-06 18:31 31.28513 34.86620 3313 ft 81 kts 54°
2026-05-06 18:32 31.28860 34.87139 3345 ft 81 kts 49°
2026-05-06 18:32 31.29250 34.87627 3386 ft 81 kts 44°
2026-05-06 18:32 31.29625 34.88121 3414 ft 82 kts 54°
2026-05-06 18:32 31.29952 34.88649 3461 ft 80 kts 52°
2026-05-06 18:33 31.30298 34.89180 3470 ft 81 kts 49°
2026-05-06 18:33 31.30702 34.89641 3480 ft 82 kts 46°
2026-05-06 18:33 31.31014 34.90205 3495 ft 81 kts 64°
2026-05-06 18:33 31.31235 34.90803 3502 ft 82 kts 62°
2026-05-06 18:34 31.31536 34.91373 3533 ft 80 kts 49°
2026-05-06 18:34 31.31859 34.91899 3556 ft 79 kts 61°
2026-05-06 18:34 31.32115 34.92452 3590 ft 77 kts 62°
2026-05-06 18:34 31.32343 34.93032 3589 ft 80 kts 68°
2026-05-06 18:35 31.32511 34.93669 3598 ft 80 kts 78°
2026-05-06 18:35 31.32594 34.94327 3593 ft 83 kts 89°
2026-05-06 18:35 31.32551 34.94993 3620 ft 81 kts 93°
2026-05-06 18:35 31.32555 34.95650 3626 ft 82 kts 81°
2026-05-06 18:36 31.32573 34.96306 3608 ft 81 kts 102°
2026-05-06 18:36 31.32319 34.96899 3550 ft 83 kts 123°
2026-05-06 18:36 31.32023 34.97473 3518 ft 81 kts 121°
2026-05-06 18:36 31.31697 34.98026 3464 ft 82 kts 126°
2026-05-06 18:37 31.31358 34.98561 3422 ft 83 kts 125°
2026-05-06 18:37 31.31038 34.99124 3386 ft 82 kts 118°
2026-05-06 18:37 31.30755 34.99703 3393 ft 80 kts 118°
2026-05-06 18:37 31.30494 35.00282 3381 ft 84 kts 113°
2026-05-06 18:38 31.30245 35.00870 3429 ft 80 kts 114°
2026-05-06 18:38 31.30019 35.01480 3441 ft 80 kts 109°
2026-05-06 18:38 31.29844 35.02103 3450 ft 82 kts 106°
2026-05-06 18:38 31.29669 35.02734 3483 ft 80 kts 105°
2026-05-06 18:39 31.29519 35.03377 3492 ft 81 kts 102°
2026-05-06 18:39 31.29438 35.04030 3509 ft 82 kts 95°
2026-05-06 18:39 31.29369 35.04680 3534 ft 81 kts 96°
2026-05-06 18:40 31.29265 35.06002 3566 ft 81 kts 92°
2026-05-06 18:40 31.29288 35.06656 3582 ft 81 kts 77°
2026-05-06 18:40 31.29356 35.07318 3582 ft 83 kts 92°
2026-05-06 18:40 31.29288 35.07972 3615 ft 81 kts 98°
2026-05-06 18:41 31.29196 35.08628 3624 ft 82 kts 99°
2026-05-06 18:41 31.29100 35.09286 3640 ft 82 kts 98°
2026-05-06 18:41 31.29015 35.09945 3660 ft 81 kts 97°
2026-05-06 18:41 31.28911 35.10594 3617 ft 83 kts 101°
2026-05-06 18:42 31.28792 35.11245 3616 ft 82 kts 101°
2026-05-06 18:42 31.28684 35.11904 3602 ft 82 kts 97°
2026-05-06 18:42 31.28594 35.12562 3586 ft 82 kts 103°
2026-05-06 18:42 31.28449 35.13213 3579 ft 81 kts 104°
2026-05-06 18:43 31.28309 35.13856 3563 ft 82 kts 105°
2026-05-06 18:43 31.28149 35.14495 3552 ft 82 kts 104°
2026-05-06 18:43 31.28016 35.15149 3540 ft 82 kts 101°
2026-05-06 18:43 31.27908 35.15803 3527 ft 82 kts 103°
2026-05-06 18:44 31.27732 35.16434 3513 ft 82 kts 112°
2026-05-06 18:44 31.27529 35.17055 3505 ft 82 kts 111°
2026-05-06 18:44 31.27281 35.17663 3493 ft 82 kts 115°
2026-05-06 18:44 31.27040 35.18283 3475 ft 81 kts 111°
2026-05-06 18:45 31.26846 35.18905 3455 ft 83 kts 105°
2026-05-06 18:45 31.26713 35.19551 3462 ft 80 kts 101°
2026-05-06 18:45 31.26596 35.20212 3439 ft 82 kts 101°
2026-05-06 18:45 31.26537 35.20864 3413 ft 86 kts 77°
2026-05-06 18:46 31.26844 35.21439 3606 ft 77 kts 44°
2026-05-06 18:46 31.27206 35.21936 3704 ft 83 kts 58°
2026-05-06 18:46 31.27467 35.22512 3874 ft 79 kts 62°
2026-05-06 18:46 31.27740 35.23063 3857 ft 82 kts 55°
2026-05-06 18:47 31.28046 35.23597 3879 ft 77 kts 58°
2026-05-06 18:47 31.28308 35.24157 3869 ft 76 kts 62°
2026-05-06 18:47 31.28556 35.24714 3850 ft 78 kts 61°
2026-05-06 18:47 31.28816 35.25265 3849 ft 78 kts 60°
2026-05-06 18:48 31.29064 35.25813 3891 ft 75 kts 60°
2026-05-06 18:48 31.29344 35.26371 3892 ft 81 kts 53°
2026-05-06 18:48 31.29697 35.26895 3943 ft 84 kts 52°
2026-05-06 18:48 31.29991 35.27508 3990 ft 86 kts 68°
2026-05-06 18:49 31.30191 35.28164 4089 ft 80 kts 78°
2026-05-06 18:49 31.30297 35.28863 4086 ft 88 kts 84°
2026-05-06 18:49 31.30342 35.29530 4141 ft 72 kts 83°
2026-05-06 18:49 31.30439 35.30043 4015 ft 64 kts 81°
2026-05-06 18:50 31.30512 35.30540 3914 ft 63 kts 83°
2026-05-06 18:50 31.30638 35.31028 3761 ft 62 kts 70°
2026-05-06 18:50 31.30766 35.31539 3579 ft 69 kts 79°
2026-05-06 18:50 31.30883 35.32104 3393 ft 73 kts 77°
2026-05-06 18:51 31.30994 35.32676 3232 ft 72 kts 79°
2026-05-06 18:51 31.31124 35.33238 3087 ft 69 kts 75°
2026-05-06 18:51 31.31248 35.33799 2897 ft 73 kts 78°
2026-05-06 18:51 31.31378 35.34376 2690 ft 76 kts 76°
2026-05-06 18:52 31.31486 35.34998 2470 ft 77 kts 80°
2026-05-06 18:52 31.31596 35.35613 2248 ft 78 kts 80°
2026-05-06 18:52 31.31729 35.36218 2049 ft 77 kts 73°
2026-05-06 18:52 31.31880 35.36839 1795 ft 80 kts 73°
2026-05-06 18:53 31.32111 35.37446 1494 ft 84 kts 59°
2026-05-06 18:53 31.32554 35.37887 1188 ft 86 kts 34°
2026-05-06 18:53 31.33064 35.38226 896 ft 85 kts 28°
2026-05-06 18:53 31.33403 35.38738 592 ft 88 kts 77°
2026-05-06 18:54 31.33412 35.39423 270 ft 83 kts 95°
2026-05-06 18:54 31.33328 35.40082 -54 ft 78 kts 104°
2026-05-06 18:54 31.33091 35.40549 -213 ft 66 kts 163°
2026-05-06 18:54 31.32676 35.40459 -304 ft 61 kts 198°
2026-05-06 18:55 31.32264 35.40313 -305 ft 62 kts 194°
2026-05-06 18:55 31.31841 35.40187 -362 ft 65 kts 190°
2026-05-06 18:55 31.31384 35.40101 -416 ft 65 kts 185°
2026-05-06 18:55 31.30941 35.40019 -458 ft 65 kts 210°
2026-05-06 18:56 31.30744 35.39530 -605 ft 68 kts 272°
2026-05-06 18:56 31.30774 35.38994 -755 ft 65 kts 276°
2026-05-06 18:56 31.31013 35.38598 -892 ft 67 kts 338°
2026-05-06 18:56 31.31457 35.38583 -973 ft 65 kts
2026-05-06 18:57 31.31915 35.38660 -1074 ft 66 kts 11°
2026-05-06 18:57 31.32356 35.38763 -1214 ft 61 kts
2026-05-06 18:57 31.32687 35.38827 -1248 ft 23 kts 13°
2026-05-06 18:57 31.32847 35.38859 -1245 ft 22 kts 10°
2026-05-06 18:58 31.32926 35.38844 -1244 ft 7 kts 316°
2026-05-06 18:58 31.32953 35.38807 -1243 ft 4 kts 13°
2026-05-06 18:58 31.32960 35.38817 -1243 ft 0 kts 92°